Location: Helsinki
(60.1699°N, 24.9384°E)
Time: 19:28:58
(UTC+03:00)

A-11 Canister half - Pass Details

Date: 03 June 2024
Orbit: 1525 x 1683 km, 47.3° (Epoch: 14 June)

Event Time Altitude Azimuth Distance (km) Brightness Sun altitude
Rises 02:00:36 0° 277° (W) 4,727 11.5 -7.0°
Reaches altitude 10° 02:04:56 10° 260° (W) 3,766 10.8 -6.9°
Maximum altitude 02:10:36 18° 223° (SW) 3,225 10.2 -6.8°
Drops below altitude 10° 02:16:22 10° 186° (S) 3,834 10.4 -6.6°
Enters shadow 02:18:30 - 176° (S) 4,281 10.7 -6.6°
